Regional Weather Roundup
Issued by NWS Jackson, KY

Home | Current Version | Previous Version | Graphics & Text | Print | Product List | Glossary On
Versions: 1 2 3 4 5 6 7 8 9 10 11 12 13 14 15 16 17 18 19 20 21 22 23 24 25 26 27 28
000
ASUS43 KJKL 230710
RWRJKL

EAST KENTUCKY HOURLY WEATHER ROUNDUP
NATIONAL WEATHER SERVICE JACKSON KY
300 AM EDT THU MAR 23 2017

NOTE: "FAIR" INDICATES FEW OR NO CLOUDS BELOW 12,000 FEET WITH
NO SIGNIFICANT WEATHER AND/OR OBSTRUCTIONS TO VISIBILITY.

* THESE REPORTS ARE NOT UNDER NWS QUALITY CONTROL AND MAY NOT
  REPORT WEATHER SUCH AS PRECIPITATION AND FOG.

KYZ079-080-083-085-087-088-110-112-115-119-120-230800
...EASTERN KENTUCKY...

CITY           SKY/WX    TMP DP  RH WIND       PRES   REMARKS
JACKSON        CLEAR     32  14  47 VRB6      30.38F WCI  26
LONDON         PTCLDY    36  14  40 NE5       30.36F WCI  32
SOMERSET*      CLOUDY    34  16  47 E3        30.38S
MONTICELLO*    PTCLDY    34  22  61 NW5       30.37S WCI  30
WILLIAMSBURG*  MOSUNNY   37  18  44 CALM      30.35S
MIDDLESBORO*   MOCLDY    37  28  70 CALM      30.36F
HARLAN APT*    SUNNY     34  21  60 NE3       30.35F
PIKE CO APT*     N/A     31  15  51 NE7       30.39S WCI  25
BIG SANDY APT* SUNNY     31  16  54 NE7       30.42R WCI  24
MOREHEAD APT*  CLOUDY    32  12  43 E9        30.44F WCI  24
ASHLAND*       CLOUDY    34  16  47 E5        30.46S WCI  30
$$

KYZ035-036-041-042-044-050-067-078-099-230800
...CENTRAL KENTUCKY...

CITY           SKY/WX    TMP DP  RH WIND       PRES   REMARKS
MT STERLING*   CLEAR     32  18  55 E8        30.42F WCI  25
FLEMING/MASON* CLOUDY    29  17  61 E7        30.45F WCI  22
DANVILLE*      CLEAR     30  21  69 E3        30.39F
LEXINGTON      CLOUDY    33  18  53 NE10      30.40F WCI  25
FRANKFORT      PTCLDY    33  17  51 NE10      30.40F WCI  25
LOUISVILLE     CLOUDY    36  17  46 E7        30.41F WCI  30
LEBANON*         N/A     32  19  59 NE5       30.39S WCI  27
GLASGOW*       CLEAR     35  23  62 NE9       30.36F WCI  27
BOWLING GREEN  PTCLDY    35  22  58 NE5       30.36F WCI  31
$$

KYZ091>093-OHZ055-061-077-WVZ005-015-034-035-042-230800
...SOUTHERN OHIO/WEST VIRGINIA...

CITY           SKY/WX    TMP DP  RH WIND       PRES   REMARKS
COVINGTON      CLEAR     31  19  61 E14       30.44F WCI  21
COLUMBUS       CLEAR     25  14  63 E5        30.51S WCI  19
DAYTON         CLEAR     24  17  74 E9        30.48S WCI  14
WILMINGTON     CLEAR     26  20  77 E8        30.46F WCI  18
HUNTINGTON     PTCLDY    32  15  49 NE6       30.45S WCI  26
CHARLESTON     PTCLDY    28  22  78 CALM      30.45S
PINEVILLE*       N/A     25  20  80 MISG      30.45R
BECKLEY        CLOUDY    27  13  55 CALM      30.38S
BLUEFIELD      CLEAR     28  10  46 E3        30.36F
LOGAN CO APT*    N/A     32  16  51 CALM      30.40S
$$

VAZ002-007-008-TNZ017-027-036-066-071-230800
...SOUTHWEST VIRGINIA/EAST TENNESSEE...

CITY           SKY/WX    TMP DP  RH WIND       PRES   REMARKS
WISE*          CLEAR     32  14  47 CALM      30.35S
JONESVILLE*      N/A     36  21  55 E3        30.37F
ABINGDON*      CLEAR     37  17  44 E9        30.35F WCI  31
BRISTOL        CLEAR     36  19  50 CALM      30.36F
MORRISTOWN*    MOSUNNY   41  18  38 E7        30.31F
SEVIERVILLE*   SUNNY     37  25  60 CALM      30.32F
KNOXVILLE      PTCLDY    43  20  39 NE7       30.31F
LAFOLLETTE*    MOSUNNY   39  28  65 CALM      30.37S
OAK RIDGE      PTCLDY    45  17  32 NE5       30.34F
CROSSVILLE     PTCLDY    39  21  48 E3        30.31F
NASHVILLE      CLEAR     42  22  44 NE6       30.32F
$$

...KEY TO REMARKS...
VSB - VISIBILITY IN MILES
WCI - WIND CHILL INDEX
HX  - HEAT INDEX

$$




USA.gov is the U.S. government's official web portal to all federal, state and local government web resources and services.